EJA804 KJQF-KELM

Flight info

Callsign EJA804
Flight time 1h 4m
Altitude 45000
Route KRITR6 FILDS PSB
Aircraft C700/M-SBDGHM1RWXY/LB2

Departure

Time 2026-05-08 17:48
Airport Concord-Padgett Regional Airport (KJQF)

Arrival

Time 2026-05-08 18:53
Airport Elmira Corning Regional Airport (KELM)
Time Latitude Longitude Altitude Speed Heading
2026-05-08 17:39 35.38550 -80.71180 661 ft 0 kts 280°
2026-05-08 17:43 35.38548 -80.71198 661 ft 6 kts 250°
2026-05-08 17:43 35.38501 -80.71220 661 ft 9 kts 190°
2026-05-08 17:44 35.38456 -80.71202 661 ft 8 kts 106°
2026-05-08 17:44 35.38434 -80.71134 662 ft 9 kts 156°
2026-05-08 17:44 35.38362 -80.71144 662 ft 12 kts 189°
2026-05-08 17:44 35.38268 -80.71165 663 ft 15 kts 190°
2026-05-08 17:45 35.38159 -80.71190 665 ft 17 kts 191°
2026-05-08 17:45 35.38034 -80.71219 663 ft 21 kts 190°
2026-05-08 17:45 35.37889 -80.71252 661 ft 16 kts 191°
2026-05-08 17:45 35.37812 -80.71263 660 ft 8 kts 157°
2026-05-08 17:46 35.37799 -80.71238 661 ft 0 kts 105°
2026-05-08 17:47 35.37794 -80.71214 661 ft 6 kts 96°
2026-05-08 17:47 35.37788 -80.71152 662 ft 7 kts 87°
2026-05-08 17:47 35.37840 -80.71125 662 ft 13 kts 10°
2026-05-08 17:47 35.37989 -80.71091 662 ft 64 kts 10°
2026-05-08 17:48 35.39141 -80.70849 1028 ft 164 kts
2026-05-08 17:48 35.40311 -80.70655 2325 ft 182 kts
2026-05-08 17:48 35.41645 -80.70354 3653 ft 205 kts 13°
2026-05-08 17:48 35.43154 -80.70376 4931 ft 236 kts 341°
2026-05-08 17:49 35.44471 -80.71706 6284 ft 262 kts 302°
2026-05-08 17:49 35.45246 -80.73737 8005 ft 260 kts 292°
2026-05-08 17:49 35.46007 -80.75728 10041 ft 256 kts 297°
2026-05-08 17:49 35.46999 -80.77644 11426 ft 281 kts 303°
2026-05-08 17:50 35.48227 -80.79566 13055 ft 287 kts 306°
2026-05-08 17:50 35.49448 -80.81523 14708 ft 292 kts 303°
2026-05-08 17:50 35.50632 -80.83569 16239 ft 296 kts 302°
2026-05-08 17:50 35.51833 -80.85646 17776 ft 301 kts 301°
2026-05-08 17:51 35.53160 -80.87669 19167 ft 309 kts 308°
2026-05-08 17:51 35.54758 -80.89470 20479 ft 317 kts 314°
2026-05-08 17:51 35.56615 -80.91016 21660 ft 328 kts 321°
2026-05-08 17:51 35.58719 -80.92239 22824 ft 342 kts 329°
2026-05-08 17:52 35.61052 -80.93071 23929 ft 357 kts 337°
2026-05-08 17:52 35.63578 -80.93428 24924 ft 374 kts 346°
2026-05-08 17:52 35.68986 -80.92487 26781 ft 408 kts 359°
2026-05-08 17:53 35.71770 -80.91894 27642 ft 407 kts 354°
2026-05-08 17:53 35.74590 -80.91328 28516 ft 414 kts 354°
2026-05-08 17:53 35.77456 -80.90743 29409 ft 420 kts 353°
2026-05-08 17:53 35.80355 -80.90168 30286 ft 425 kts 353°
2026-05-08 17:54 35.83289 -80.89596 31034 ft 429 kts 352°
2026-05-08 17:54 35.86262 -80.89006 31724 ft 435 kts 352°
2026-05-08 17:54 35.89261 -80.88406 32389 ft 440 kts 352°
2026-05-08 17:54 35.92263 -80.87807 33114 ft 444 kts 352°
2026-05-08 17:55 35.95358 -80.87187 33979 ft 443 kts 352°
2026-05-08 17:55 35.98390 -80.86573 34850 ft 440 kts 351°
2026-05-08 17:55 36.01401 -80.85976 35588 ft 438 kts 351°
2026-05-08 17:55 36.04406 -80.85384 36286 ft 437 kts 351°
2026-05-08 17:56 36.07416 -80.84784 36935 ft 437 kts 351°
2026-05-08 17:56 36.10371 -80.84188 37559 ft 436 kts 351°
2026-05-08 17:56 36.13369 -80.83587 38146 ft 435 kts 350°
2026-05-08 17:56 36.16353 -80.82992 38805 ft 434 kts 350°
2026-05-08 17:57 36.19331 -80.82396 39274 ft 433 kts 351°
2026-05-08 17:57 36.22303 -80.81801 39656 ft 433 kts 351°
2026-05-08 17:57 36.25270 -80.81206 40022 ft 433 kts 351°
2026-05-08 17:57 36.28248 -80.80608 40369 ft 433 kts 351°
2026-05-08 17:58 36.31222 -80.80010 40701 ft 433 kts 352°
2026-05-08 17:58 36.34190 -80.79413 41026 ft 432 kts 352°
2026-05-08 17:58 36.37158 -80.78816 41352 ft 432 kts 352°
2026-05-08 17:58 36.40124 -80.78218 41686 ft 432 kts 353°
2026-05-08 17:59 36.43091 -80.77622 41951 ft 432 kts 353°
2026-05-08 17:59 36.46065 -80.77022 42222 ft 433 kts 353°
2026-05-08 17:59 36.49036 -80.76421 42510 ft 433 kts 353°
2026-05-08 17:59 36.52008 -80.75820 42806 ft 432 kts 353°
2026-05-08 18:00 36.54981 -80.75218 43071 ft 433 kts 354°
2026-05-08 18:00 36.60947 -80.73084 43549 ft 461 kts
2026-05-08 18:00 36.63843 -80.71397 43840 ft 467 kts 12°
2026-05-08 18:01 36.66769 -80.69637 44092 ft 466 kts 12°
2026-05-08 18:01 36.69693 -80.67904 44340 ft 465 kts 12°
2026-05-08 18:01 36.72616 -80.66173 44559 ft 465 kts 12°
2026-05-08 18:01 36.75536 -80.64426 44755 ft 465 kts 13°
2026-05-08 18:02 36.78450 -80.62677 44929 ft 465 kts 13°
2026-05-08 18:02 36.80380 -80.61522 45041 ft 465 kts 13°
2026-05-08 18:02 36.87269 -80.57411 45090 ft 475 kts 13°
2026-05-08 18:03 36.93275 -80.53799 45086 ft 483 kts 13°
2026-05-08 18:03 36.99371 -80.50139 45090 ft 490 kts 14°
2026-05-08 18:04 37.05560 -80.46411 45101 ft 496 kts 14°
2026-05-08 18:04 37.11824 -80.42635 45099 ft 504 kts 14°
2026-05-08 18:05 37.18139 -80.38817 45105 ft 510 kts 14°
2026-05-08 18:05 37.24557 -80.34930 45106 ft 515 kts 14°
2026-05-08 18:06 37.31032 -80.31001 45082 ft 516 kts 14°
2026-05-08 18:06 37.37491 -80.27074 45075 ft 515 kts 15°
2026-05-08 18:07 37.43925 -80.23156 45073 ft 513 kts 15°
2026-05-08 18:07 37.50337 -80.19245 45070 ft 512 kts 15°
2026-05-08 18:08 37.56750 -80.15327 45073 ft 513 kts 15°
2026-05-08 18:08 37.63175 -80.11389 45080 ft 514 kts 15°
2026-05-08 18:09 37.69628 -80.07433 45083 ft 517 kts 15°
2026-05-08 18:09 37.76103 -80.03449 45081 ft 518 kts 15°
2026-05-08 18:10 37.82583 -79.99458 45073 ft 517 kts 16°
2026-05-08 18:10 37.89037 -79.95471 45070 ft 514 kts 15°
2026-05-08 18:11 37.95409 -79.91533 45066 ft 512 kts 15°
2026-05-08 18:11 38.01808 -79.87569 45054 ft 513 kts 16°
2026-05-08 18:12 38.08236 -79.83577 45054 ft 514 kts 16°
2026-05-08 18:12 38.14675 -79.79572 45049 ft 515 kts 16°
2026-05-08 18:13 38.21118 -79.75555 45091 ft 515 kts 16°
2026-05-08 18:13 38.27576 -79.71524 45057 ft 518 kts 16°
2026-05-08 18:14 38.34051 -79.67469 45056 ft 519 kts 16°
2026-05-08 18:14 38.40511 -79.63385 45038 ft 517 kts 16°
2026-05-08 18:15 38.46960 -79.59379 45049 ft 515 kts 16°
2026-05-08 18:15 38.53366 -79.55327 45036 ft 513 kts 17°
2026-05-08 18:16 38.59759 -79.51304 45036 ft 512 kts 16°
2026-05-08 18:16 38.66170 -79.47251 45057 ft 516 kts 17°
2026-05-08 18:17 38.72617 -79.43165 45046 ft 518 kts 16°
2026-05-08 18:17 38.79083 -79.39064 45035 ft 517 kts 17°
2026-05-08 18:18 38.85505 -79.34973 45037 ft 514 kts 17°
2026-05-08 18:18 38.91884 -79.30918 45034 ft 515 kts 17°
2026-05-08 18:19 38.98295 -79.26815 45033 ft 514 kts 17°
2026-05-08 18:19 39.04709 -79.22718 45033 ft 515 kts 17°
2026-05-08 18:20 39.11114 -79.18625 45033 ft 514 kts 16°
2026-05-08 18:20 39.17541 -79.14488 45031 ft 518 kts 17°
2026-05-08 18:21 39.23979 -79.10327 45025 ft 517 kts 17°
2026-05-08 18:21 39.30432 -79.06181 45032 ft 519 kts 17°
2026-05-08 18:22 39.36821 -79.02032 45014 ft 514 kts 17°
2026-05-08 18:22 39.43204 -78.97912 45015 ft 511 kts 17°
2026-05-08 18:23 39.49560 -78.93779 45016 ft 511 kts 17°
2026-05-08 18:23 39.55927 -78.89643 45029 ft 512 kts 18°
2026-05-08 18:24 39.62290 -78.85493 45030 ft 511 kts 18°
2026-05-08 18:24 39.68640 -78.81345 45026 ft 511 kts 18°
2026-05-08 18:25 39.74995 -78.77189 45027 ft 513 kts 18°
2026-05-08 18:25 39.81381 -78.72997 45001 ft 515 kts 18°
2026-05-08 18:26 39.87782 -78.68792 44990 ft 515 kts 18°
2026-05-08 18:26 39.94137 -78.64605 44983 ft 515 kts 18°
2026-05-08 18:27 39.98410 -78.61786 44984 ft 514 kts 18°
2026-05-08 18:27 40.06873 -78.56190 44980 ft 511 kts 18°
2026-05-08 18:28 40.12174 -78.52678 44980 ft 509 kts 18°
2026-05-08 18:28 40.18450 -78.48512 44977 ft 510 kts 18°
2026-05-08 18:29 40.21634 -78.46398 44546 ft 516 kts 18°
2026-05-08 18:29 40.24830 -78.44270 43840 ft 514 kts 18°
2026-05-08 18:29 40.27990 -78.42153 43172 ft 506 kts 18°
2026-05-08 18:29 40.31095 -78.40075 42512 ft 497 kts 18°
2026-05-08 18:30 40.34149 -78.38041 41874 ft 489 kts 17°
2026-05-08 18:30 40.37161 -78.36033 41230 ft 482 kts 17°
2026-05-08 18:30 40.40121 -78.34052 40607 ft 475 kts 17°
2026-05-08 18:30 40.43054 -78.32085 39986 ft 472 kts 17°
2026-05-08 18:31 40.45977 -78.30131 39370 ft 472 kts 16°
2026-05-08 18:31 40.48908 -78.28171 38751 ft 475 kts 16°
2026-05-08 18:31 40.51862 -78.26186 38062 ft 478 kts 16°
2026-05-08 18:31 40.54825 -78.24187 37428 ft 480 kts 16°
2026-05-08 18:32 40.57798 -78.22184 36794 ft 480 kts 16°
2026-05-08 18:32 40.60770 -78.20184 36160 ft 480 kts 16°
2026-05-08 18:32 40.63738 -78.18182 35525 ft 478 kts 16°
2026-05-08 18:32 40.66689 -78.16185 34896 ft 475 kts 15°
2026-05-08 18:33 40.69616 -78.14204 34270 ft 471 kts 15°
2026-05-08 18:33 40.72518 -78.12243 33609 ft 466 kts 15°
2026-05-08 18:33 40.75396 -78.10297 32992 ft 463 kts 15°
2026-05-08 18:33 40.78267 -78.08357 32374 ft 466 kts 15°
2026-05-08 18:34 40.81176 -78.06390 31756 ft 472 kts 16°
2026-05-08 18:34 40.84115 -78.04392 31133 ft 478 kts 17°
2026-05-08 18:34 40.87076 -78.02373 30501 ft 481 kts 17°
2026-05-08 18:34 40.90055 -78.00343 29834 ft 483 kts 17°
2026-05-08 18:35 40.93000 -77.98234 29180 ft 480 kts 20°
2026-05-08 18:35 40.95830 -77.96045 28558 ft 474 kts 21°
2026-05-08 18:35 40.98657 -77.93864 27929 ft 466 kts 21°
2026-05-08 18:35 41.01448 -77.91732 27325 ft 460 kts 20°
2026-05-08 18:36 41.04210 -77.89620 26722 ft 456 kts 21°
2026-05-08 18:36 41.06948 -77.87512 26120 ft 454 kts 21°
2026-05-08 18:36 41.09663 -77.85414 25527 ft 451 kts 21°
2026-05-08 18:36 41.12369 -77.83328 24932 ft 448 kts 21°
2026-05-08 18:37 41.15056 -77.81258 24344 ft 444 kts 21°
2026-05-08 18:37 41.17705 -77.79209 23753 ft 438 kts 21°
2026-05-08 18:37 41.20323 -77.77182 23126 ft 432 kts 21°
2026-05-08 18:37 41.22892 -77.75193 22565 ft 425 kts 21°
2026-05-08 18:38 41.25437 -77.73226 22006 ft 421 kts 21°
2026-05-08 18:38 41.27962 -77.71272 21455 ft 419 kts 21°
2026-05-08 18:38 41.30479 -77.69318 20903 ft 417 kts 21°
2026-05-08 18:38 41.32980 -77.67373 20368 ft 414 kts 21°
2026-05-08 18:39 41.35453 -77.65448 19807 ft 410 kts 21°
2026-05-08 18:39 41.37902 -77.63533 19272 ft 405 kts 21°
2026-05-08 18:39 41.40354 -77.61767 18741 ft 398 kts 18°
2026-05-08 18:39 41.42781 -77.59993 18211 ft 397 kts 21°
2026-05-08 18:40 41.45144 -77.58087 17676 ft 395 kts 22°
2026-05-08 18:40 41.47474 -77.56187 17172 ft 390 kts 22°
2026-05-08 18:40 41.49802 -77.54379 16661 ft 385 kts 21°
2026-05-08 18:40 41.52123 -77.52599 16173 ft 384 kts 22°
2026-05-08 18:41 41.54425 -77.50789 15653 ft 384 kts 22°
2026-05-08 18:41 41.56721 -77.48967 15146 ft 384 kts 22°
2026-05-08 18:41 41.59014 -77.47160 14640 ft 380 kts 22°
2026-05-08 18:41 41.61283 -77.45378 14136 ft 377 kts 22°
2026-05-08 18:42 41.63542 -77.43601 13633 ft 376 kts 22°
2026-05-08 18:42 41.65781 -77.41832 13112 ft 368 kts 23°
2026-05-08 18:42 41.67921 -77.40131 12634 ft 348 kts 23°
2026-05-08 18:42 41.69944 -77.38528 12187 ft 329 kts 23°
2026-05-08 18:43 41.71875 -77.37008 11778 ft 315 kts 23°
2026-05-08 18:43 41.73731 -77.35547 11364 ft 304 kts 23°
2026-05-08 18:43 41.75513 -77.34139 10969 ft 299 kts 23°
2026-05-08 18:43 41.77308 -77.32719 10584 ft 300 kts 24°
2026-05-08 18:44 41.79108 -77.31294 10188 ft 300 kts 24°
2026-05-08 18:44 41.80904 -77.29871 9785 ft 300 kts 25°
2026-05-08 18:44 41.82694 -77.28450 9380 ft 298 kts 25°
2026-05-08 18:44 41.84479 -77.27026 8981 ft 298 kts 25°
2026-05-08 18:45 41.86262 -77.25609 8580 ft 296 kts 25°
2026-05-08 18:45 41.88015 -77.24216 8197 ft 291 kts 25°
2026-05-08 18:45 41.89748 -77.22837 7799 ft 288 kts 25°
2026-05-08 18:45 41.91443 -77.21487 7430 ft 276 kts 25°
2026-05-08 18:46 41.93044 -77.20205 7066 ft 258 kts 25°
2026-05-08 18:46 41.94536 -77.19013 6743 ft 243 kts 25°
2026-05-08 18:46 41.95965 -77.17877 6427 ft 233 kts 24°
2026-05-08 18:46 41.97321 -77.16796 6124 ft 222 kts 24°
2026-05-08 18:47 41.98629 -77.15754 5832 ft 215 kts 24°
2026-05-08 18:47 41.99885 -77.14753 5557 ft 210 kts 24°
2026-05-08 18:47 42.01050 -77.13518 5273 ft 213 kts 42°
2026-05-08 18:47 42.02006 -77.12019 5005 ft 209 kts 45°
2026-05-08 18:48 42.02917 -77.10536 4735 ft 207 kts 46°
2026-05-08 18:48 42.03833 -77.09050 4454 ft 204 kts 44°
2026-05-08 18:48 42.04735 -77.07594 4185 ft 202 kts 46°
2026-05-08 18:48 42.05627 -77.06137 3918 ft 201 kts 44°
2026-05-08 18:49 42.06525 -77.04695 3659 ft 201 kts 45°
2026-05-08 18:49 42.07411 -77.03239 3397 ft 201 kts 45°
2026-05-08 18:49 42.08311 -77.01798 3200 ft 198 kts 46°
2026-05-08 18:49 42.09150 -77.00411 2997 ft 180 kts 45°
2026-05-08 18:50 42.09926 -76.99169 2752 ft 170 kts 44°
2026-05-08 18:50 42.10677 -76.97945 2564 ft 162 kts 43°
2026-05-08 18:50 42.11372 -76.96812 2297 ft 153 kts 44°
2026-05-08 18:50 42.12009 -76.95740 2145 ft 138 kts 49°
2026-05-08 18:51 42.12596 -76.94771 1899 ft 131 kts 46°
2026-05-08 18:51 42.13173 -76.93868 1678 ft 125 kts 48°
2026-05-08 18:51 42.13719 -76.92994 1460 ft 119 kts 49°
2026-05-08 18:51 42.14247 -76.92135 1312 ft 119 kts 48°
2026-05-08 18:52 42.14773 -76.91279 1176 ft 118 kts 46°
2026-05-08 18:52 42.15295 -76.90431 1019 ft 118 kts 45°
2026-05-08 18:52 42.15781 -76.89641 947 ft 93 kts 43°
2026-05-08 18:52 42.16107 -76.89124 945 ft 58 kts 51°
2026-05-08 18:53 42.16296 -76.88818 946 ft 36 kts 50°
2026-05-08 18:53 42.16414 -76.88627 946 ft 12 kts 50°
2026-05-08 18:53 42.16458 -76.88601 946 ft 7 kts 329°
2026-05-08 18:53 42.16486 -76.88632 946 ft 0 kts 319°
2026-05-08 18:54 42.16500 -76.88649 946 ft 7 kts 317°
2026-05-08 18:54 42.16510 -76.88701 945 ft 8 kts 238°
2026-05-08 18:54 42.16465 -76.88779 944 ft 13 kts 233°
2026-05-08 18:54 42.16399 -76.88893 946 ft 17 kts 232°
2026-05-08 18:55 42.16241 -76.89167 945 ft 20 kts 231°
2026-05-08 18:55 42.16162 -76.89300 943 ft 19 kts 232°
2026-05-08 18:55 42.16092 -76.89422 945 ft 12 kts 232°
2026-05-08 18:56 42.16035 -76.89524 945 ft 16 kts 233°
2026-05-08 18:56 42.15981 -76.89624 945 ft 7 kts 237°
2026-05-08 18:56 42.15998 -76.89686 945 ft 4 kts 323°
2026-05-08 18:56 42.16031 -76.89696 945 ft 7 kts 39°
2026-05-08 18:57 42.16040 -76.89685 945 ft 1 kts 45°
2026-05-08 18:57 42.16056 -76.89662 944 ft 7 kts 46°
2026-05-08 18:57 42.16091 -76.89676 945 ft 6 kts 314°
2026-05-08 18:57 42.16102 -76.89690 945 ft 0 kts 315°